This demonstration page uses our WeatherBlox Daily Observations layout. Learn more.

Left ArrowRight Arrow

47.50024, -111.30081

Hourly Observations for November 24, 2015

Temp ( °F °C ) Dew Point ( °F °C ) Humidity (%) Winds ( mph kmh ) Pressure ( in mb ) Visibility ( mi km ) Precip ( " mm )
12:53 am 00:53 Clear 39 3.9 21 -6.1 48 48 SSW 12 19 29.69 1005 10 16 0.00 0.00
1:53 am 01:53 Clear 37 2.8 21 -6.1 52 52 SSW 9 15 29.69 1006 10 16 0.00 0.00
2:53 am 02:53 Clear 39 3.9 21 -6.1 48 48 S 13 20 29.70 1006 10 16 0.00 0.00
3:53 am 03:53 Clear 36 2.2 21 -6.1 55 55 S 10 17 29.72 1007 10 16 0.00 0.00
4:53 am 04:53 Clear 37 2.8 21 -6.1 52 52 SSW 9 15 29.73 1007 10 16 0.00 0.00
5:53 am 05:53 Clear 30 -1.1 25 -3.9 82 82 NNW 20 31 29.79 1009 10 16 0.00 0.00
6:21 am 06:21 Mostly Clear 29 -1.7 26 -3.3 89 89 NNW 16 26 29.85 1011 10 16 0.00 0.00
6:35 am 06:35 Mostly Cloudy 29 -1.7 26 -3.3 89 89 NNW 18 30 29.85 1011 9 14 0.00 0.00
6:53 am 06:53 Cloudy 29 -1.7 26 -3.3 89 89 NNW 15 24 29.84 1011 8 13 0.00 0.00
7:53 am 07:53 Cloudy 29 -1.7 26 -3.3 89 89 NNW 14 22 29.91 1013 8 13 0.00 0.00
8:53 am 08:53 Cloudy with Mist and Fog 28 -2.2 25 -3.9 88 88 NNW 20 31 29.96 1014 5 8 0.00 0.00
9:19 am 09:19 Cloudy with Light Snow 28 -2.2 25 -3.9 88 88 NNW 16 26 30.00 1016 3 4 0.00 0.03
9:53 am 09:53 Cloudy with Light Snow 27 -2.8 25 -3.9 92 92 NW 15 24 29.98 1015 2 3 0.00 0.03
10:14 am 10:14 Cloudy with Light Snow 27 -3 23 -5 86 86 NW 16 26 30.06 1018 3 4 0.00 0.00
10:20 am 10:20 Cloudy with Mist and Fog 27 -3 21 -6 80 80 NNW 16 26 30.06 1018 4 6 0.00 0.00
10:53 am 10:53 Cloudy 25 -3.9 21 -6.1 85 85 NW 17 28 30.03 1017 10 16 0.00 0.03
11:16 am 11:16 Cloudy with Light Snow 25 -4 19 -7 80 80 NW 17 28 30.09 1019 2 3 0.00 0.00
11:21 am 11:21 Cloudy with Light Snow 25 -3.9 20 -6.7 81 81 NNW 18 30 30.09 1019 1 1 0.01 0.25
11:40 am 11:40 Cloudy with Light Snow 25 -4 19 -7 80 80 NNW 17 28 30.09 1019 1 1 0.00 0.00
11:53 am 11:53 Cloudy with Light Snow 24 -4.4 20 -6.7 84 84 NNW 18 30 30.02 1017 1 1 0.02 0.51
12:14 pm 12:14 Windy with Snow Likely 23 -5 19 -7 86 86 NNW 20 31 30.12 1020 1 2 0.00 0.00
12:25 pm 12:25 Cloudy with Light Snow 23 -5 20 -6.7 88 88 NW 16 26 30.12 1020 1 2 0.00 0.03
12:38 pm 12:38 Mostly Cloudy with Light Snow 23 -5 19 -7 86 86 NNW 18 30 30.12 1020 1 1 0.00 0.00
12:53 pm 12:53 Mostly Cloudy with Snow 23 -5 20 -6.7 88 88 NW 16 26 30.04 1017 1 1 0.02 0.51
1:39 pm 13:39 Mostly Cloudy with Snow 23 -5 20 -6.7 88 88 NNW 17 28 30.12 1020 0 0 0.03 0.76
1:53 pm 13:53 Mostly Cloudy with Snow 23 -5 20 -6.7 88 88 NNW 17 28 30.05 1018 0 0 0.04 1.02
2:09 pm 14:09 Cloudy with Snow 22 -5.6 20 -6.7 92 92 NW 16 26 30.12 1020 1 1 0.02 0.51
2:43 pm 14:43 Cloudy with Light Snow 22 -5.6 19 -7.2 89 89 NW 15 24 30.12 1020 1 1 0.03 0.76
2:53 pm 14:53 Cloudy with Light Snow 22 -5.6 19 -7.2 89 89 NW 16 26 30.06 1018 1 1 0.04 1.02
3:19 pm 15:19 Cloudy with Light Snow 22 -5.6 19 -7.2 89 89 NNW 16 26 30.12 1020 1 2 0.00 0.03
3:22 pm 15:22 Cloudy with Light Snow 21 -6 19 -7 93 93 NNW 12 19 30.12 1020 1 1 0.00 0.00
3:50 pm 15:50 Cloudy with Light Snow 21 -6 19 -7 93 93 NW 12 19 30.18 1022 1 2 0.00 0.00
3:53 pm 15:53 Cloudy with Light Snow 21 -6.1 19 -7.2 92 92 NW 15 24 30.09 1019 1 2 0.01 0.25
4:07 pm 16:07 Mostly Cloudy with Light Snow 21 -6.1 19 -7.2 92 92 NW 10 17 30.18 1022 1 1 0.00 0.03
4:14 pm 16:14 Cloudy with Light Snow 21 -6 18 -8 86 86 NW 16 26 30.18 1022 1 1 0.00 0.00
4:53 pm 16:53 Cloudy with Light Snow 21 -6.1 18 -7.8 88 88 NNW 15 24 30.12 1020 1 1 0.02 0.51
5:08 pm 17:08 Cloudy with Light Snow 21 -6 18 -8 86 86 NNW 14 22 30.21 1023 1 2 0.00 0.00
5:29 pm 17:29 Mostly Cloudy with Light Snow 21 -6.1 18 -7.8 88 88 NNW 16 26 30.21 1023 1 1 0.01 0.25
5:53 pm 17:53 Cloudy with Light Snow 20 -6.7 18 -7.8 92 92 NNW 14 22 30.17 1022 1 1 0.03 0.76
6:30 pm 18:30 Windy with Snow Likely 19 -7 18 -8 93 93 NNW 21 33 30.24 1024 1 2 0.00 0.00
6:53 pm 18:53 Windy with Snow Likely 19 -7.2 16 -8.9 88 88 NNW 22 35 30.20 1023 1 2 0.02 0.51
7:38 pm 19:38 Windy with Snow Likely 18 -8 16 -9 93 93 NNW 21 33 30.30 1026 2 3 0.00 0.00
7:46 pm 19:46 Windy with Snow Likely 18 -8 16 -9 93 93 NNW 20 31 30.30 1026 2 3 0.00 0.00
7:53 pm 19:53 Cloudy with Light Snow 18 -7.8 15 -9.4 88 88 NNW 17 28 30.22 1024 1 2 0.01 0.25
8:53 pm 20:53 Cloudy with Light Snow 17 -8.3 14 -10 88 88 NNW 16 26 30.25 1025 2 3 0.02 0.51
9:51 pm 21:51 Cloudy with Light Snow 16 -9 12 -11 86 86 NNW 13 20 30.39 1029 3 5 0.00 0.03
9:53 pm 21:53 Cloudy with Light Snow 16 -8.9 13 -10.6 88 88 NNW 12 19 30.29 1026 3 5 0.00 0.03
10:08 pm 22:08 Cloudy with Light Snow 16 -9 12 -11 86 86 NNW 14 22 30.39 1029 3 5 0.00 0.00
10:17 pm 22:17 Cloudy with Light Snow 16 -8.9 13 -10.6 88 88 NNW 9 15 30.39 1029 2 3 0.01 0.25
10:26 pm 22:26 Cloudy with Light Snow 16 -9 12 -11 86 86 NNW 16 26 30.39 1029 2 2 0.00 0.00
10:37 pm 22:37 Cloudy with Light Snow 15 -9.4 12 -11.1 88 88 N 17 28 30.39 1029 1 2 0.02 0.51
10:48 pm 22:48 Cloudy with Light Snow 16 -9 12 -11 86 86 NNW 14 22 30.39 1029 2 3 0.00 0.00
10:53 pm 22:53 Cloudy with Light Snow 15 -9.4 12 -11.1 88 88 NNW 18 30 30.32 1027 2 3 0.02 0.51
11:29 pm 23:29 Cloudy with Light Snow 14 -10 10 -12.2 84 84 NNW 14 22 30.45 1031 3 5 0.01 0.25
11:39 pm 23:39 Cloudy with Light Snow 14 -10 10 -12.2 84 84 N 16 26 30.45 1031 3 4 0.01 0.25
11:53 pm 23:53 Cloudy with Light Snow 13 -10.6 10 -12.2 88 88 NNW 15 24 30.35 1028 2 3 0.01 0.25
11:57 pm 23:57 Cloudy with Light Snow 13 -10.6 9 -12.8 84 84 NNW 15 24 30.45 1031 2 3 0.00 0.03

Powered by AerisWeather